Location: Quesnel
(52.9830°N, 122.4830°W)
Time: 23:59:51
(UTC-07:00)

ISS - All Passes

Search period start: 20 October 2014 00:00
Search period end: 30 October 2014 00:00
Orbit: 413 x 416 km, 51.6° (Epoch: 20 October)

Date Brightness Start Highest point End Pass type
(mag) Time Alt. Az. Time Alt. Az. Time Alt. Az.
20 Oct - 14:59:51 10° S 15:01:36 14° SE 15:03:21 10° ESE daylight
20 Oct - 16:34:30 10° SW 16:37:42 43° SSE 16:40:54 10° E daylight
20 Oct - 18:10:53 10° W 18:14:14 72° S 18:17:34 10° E daylight
20 Oct - 19:47:33 10° W 19:50:46 44° SSW 19:53:59 10° SE visible
20 Oct - 21:25:04 10° WSW 21:26:53 14° SW 21:28:41 10° S visible
21 Oct - 15:45:44 10° SW 15:48:47 33° SSE 15:51:50 10° E daylight
21 Oct - 17:21:54 10° WSW 17:25:14 69° S 17:28:34 10° E daylight
21 Oct - 18:58:32 10° W 19:01:49 55° SSW 19:05:06 10° ESE visible
21 Oct - 20:35:34 10° W 20:38:04 20° SSW 20:40:34 10° SSE visible
22 Oct - 14:57:05 10° SSW 14:59:52 25° SSE 15:02:40 10° E daylight
22 Oct - 16:32:54 10° WSW 16:36:13 62° S 16:39:32 10° E daylight
22 Oct - 18:09:29 10° W 18:12:48 64° S 18:16:07 10° ESE daylight
22 Oct - 19:46:18 10° W 19:49:11 27° SSW 19:52:03 10° SSE visible
23 Oct - 14:08:38 10° S 14:10:58 18° SE 14:13:18 10° E daylight
23 Oct - 15:43:54 10° WSW 15:47:10 51° SSE 15:50:26 10° E daylight
23 Oct - 17:20:24 10° W 17:23:44 70° S 17:27:04 10° E daylight
23 Oct - 18:57:06 10° W 19:00:13 36° SSW 19:03:19 10° SE visible
23 Oct - 20:35:45 10° SW 20:36:11 10° SW 20:36:37 10° SW visible
24 Oct - 13:20:36 10° SSE 13:22:04 12° SE 13:23:32 10° ESE daylight
24 Oct - 14:54:57 10° SW 14:58:07 41° SSE 15:01:17 10° E daylight
24 Oct - 16:31:18 10° W 16:34:38 71° S 16:37:58 10° E daylight
24 Oct - 18:07:57 10° W 18:11:10 46° SSW 18:14:24 10° SE daylight
24 Oct - 19:45:18 10° WSW 19:47:18 15° SW 19:49:19 10° S visible
25 Oct - 14:06:05 10° SW 14:09:04 31° SSE 14:12:04 10° E daylight
25 Oct - 15:42:10 10° WSW 15:45:29 68° S 15:48:49 10° E daylight
25 Oct - 17:18:46 10° W 17:22:04 57° SSW 17:25:21 10° ESE daylight
25 Oct - 18:55:44 10° W 18:58:21 21° SSW 19:00:57 10° SSE visible
26 Oct - 13:17:20 10° SSW 13:20:01 23° SSE 13:22:43 10° E daylight
26 Oct - 14:53:02 10° WSW 14:56:19 59° SSE 14:59:38 10° E daylight
26 Oct - 16:29:35 10° W 16:32:54 66° S 16:36:13 10° ESE daylight
26 Oct - 18:06:21 10° W 18:09:18 29° SSW 18:12:14 10° SE daylight
27 Oct - 12:28:49 10° S 12:30:59 16° SE 12:33:09 10° ESE daylight
27 Oct - 14:03:55 10° WSW 14:07:09 49° SSE 14:10:23 10° E daylight
27 Oct - 15:40:22 10° W 15:43:42 71° S 15:47:01 10° E daylight
27 Oct - 17:17:02 10° W 17:20:11 38° SSW 17:23:18 10° SE daylight
27 Oct - 18:55:04 10° WSW 18:56:11 11° SW 18:57:18 10° SSW visible
28 Oct - 11:40:55 10° SSE 11:41:58 11° SE 11:43:00 10° ESE daylight
28 Oct - 13:14:50 10° SW 13:17:58 38° SSE 13:21:06 10° E daylight
28 Oct - 14:51:07 10° W 14:54:26 71° S 14:57:46 10° E daylight
28 Oct - 16:27:45 10° W 16:30:59 49° SSW 16:34:14 10° ESE daylight
28 Oct - 18:04:57 10° WSW 18:07:09 17° SW 18:09:20 10° S daylight
29 Oct - 12:25:51 10° SSW 12:28:46 29° SSE 12:31:42 10° E daylight
29 Oct - 14:01:51 10° WSW 14:05:10 66° S 14:08:29 10° E daylight
29 Oct - 15:38:26 10° W 15:41:44 60° SSW 15:45:02 10° ESE daylight
29 Oct - 17:15:19 10° W 17:18:02 23° SSW 17:20:44 10° SSE daylight
